Location: Córrego Montividiu
(13.2496°S, 48.8603°W)
Time: 11:49:21
(UTC+00:00)

GPS 2-15 Rocket1 - Pass Details

Date: 11 March 2026
Orbit: 607 x 651 km, 19.8° (Epoch: 22 April)

Event Time Altitude Azimuth Distance (km) Brightness Sun altitude
Rises 22:17:19 0° 265° (W) 2,902 8.7 -11.8°
Reaches altitude 10° 22:19:45 10° 258° (WSW) 2,004 7.2 -12.4°
Maximum altitude 22:24:14 42° 187° (S) 905 4.0 -13.5°
Enters shadow 22:27:45 16° 121° (ESE) 1,682 4.8 -14.3°
